STARLINK-34673, 65090

Orbit data source: Space-Track

STARLINK-34673, 65090 is a payload satellite owned by SpaceX/Seattle (US) in LEO that was launched on Mon, 04 Aug 2025 UTC via an FALCON 9 launch vehicle from the Air Force Eastern Test Range (AFETR). Payload-class satellites include a variety of spacecraft equipped with specific instruments for various scientific and technological missions. These include communications satellites like Starlink; space stations such as the ISS; scientific satellites like the Hubble; Earth observation satellites from companies like Planet Labs, Umbra, and HawkEye 360; GPS; miniature CubeSats for education and research; and military/defense satellites.

Loading next visibility...
Identifier
65090, 2025-167N
Orbit
LEO
Country
Flag of USUS
Related business
Manufacturer
SpaceX/Seattle
Mission
Operational Commercial Communications
Bus & Motor
STARLINK V2MO, Unknown motor
Mass
575 kg wet, ~530 kg dry
Launch date (UTC)
2025-08-04 (9 months ago)
Launch vehicle
FALCON 9
Launch site
Air Force Eastern Test Range (AFETR)
Object type
Payload
Rocket body
Debris
Shape & HBR
Box + 2 Pan, 17.7 m
Radar Cross Section
36.964 m², Large (>1 m²)

Expand to show TLE details & history
Last TLE update: 12 hours ago

TLE from 12 hours ago
0 STARLINK-34673
1 65090U 25167N   26127.25747170  .00012719  00000-0  44085-3 0  9996
2 65090  53.1574 114.8448 0001194  84.9258 275.1878 15.30196238 42448
Epoch: 2026-05-07T06:10Z
TLE epoch observation values (Epoch: 2026-05-07T06:10:45.554Z)
Latitude
-0.00012°
Longitude
157.0487°
Altitude
476.052 km
Speed
7.629 km/s
True Right ascension
07h 39m 22s
True Declination
0° 00' 00"
Sunlit
Object was in daylight at epoch
Visualization orbit readout
Latitude
Unknown
Longitude
Unknown
Altitude
Unknown
Speed
Unknown
Apparent Right ascension
Unknown
Apparent Declination
Unknown
Sunlit
N/A
Visualization observer readout
Local Sidereal Time
01:55:31
Azimuth
Unknown
Elevation
Unknown
Doppler factor
Unknown
Orbital elements
Apogee altitude
476.301 km
Perigee altitude
474.665 km
Semi-major axis
6,853.62 km
Eccentricity
0.00012
Inclination
53.1574°
RAAN
114.8448°
Arg. of periapsis
84.9258°
True anomaly
275.17417°
Mean anomaly
275.1878°
Eccentric anomaly
275.18099°
Mean motion
3.82528 °/min
Orbital period
94.11 mins
BSTAR
0.00044085
Loading maneuver chart data...
Computing Atmospheric mass density...
Loading historical data...
Loading historical data...
Loading historical data...
Loading historical data...
Loading historical data...
Loading historical data...
Loading historical data...

Documentation

Showing up to 5 results
|